Tracking 35274 objects as of 12-Sep-2026
HD Live streaming from Space Station
objects crossing your sky now

PEARL WHITE 2


PEARL WHITE 2 is no longer on orbit


NORAD ID: 44498
Int'l Code: 2019-054D
Launch date: August 19, 2019
Source: United States (US)
Launch site: Rocket Lab Launch Complex (RLLC)
Decay date: 2025-03-08
Your satellite tracking list
Your tracking list is empty




NASA's NSSDC Master Catalog

Two Line Element Set (TLE):
1 44498U 19054D   25061.90455823  .06964169  10458-4  61281-3 0  9992
2 44498  44.9766   7.4152 0003832 221.0606 139.0031 16.38229822307278
Source of the keplerian elements: AFSPC